CW5425 Weather Reports


Display with metric or nautical units.
time (UTC)temp
F
wind
direction
speed
MPH
gust
MPH
rain 1hr
in
rain 24hr
in
rain mn
in
humidity
%
barometer
mb
20260510225633 68 319 0.0 0.0 0.00 0.05 0.00 65 1013.7
20260510224132 68 319 0.0 0.0 0.00 0.05 0.00 65 1013.5
20260510222626 68 319 0.0 2.0 0.00 0.05 0.00 64 1013.5
20260510221125 69 322 0.0 3.0 0.00 0.05 0.00 64 1013.2
20260510215622 69 271 0.0 3.0 0.00 0.17 0.00 63 1013.3
20260510214140 69 266 0.0 6.0 0.00 0.17 0.00 64 1013.4
20260510212637 70 265 0.0 7.0 0.00 0.17 0.00 63 1013.1
20260510211157 70 263 3.0 9.0 0.00 0.17 0.00 63 1012.9
20260510205623 71 281 1.0 6.0 0.00 0.20 0.00 64 1012.7
20260510204147 71 276 0.0 1.0 0.00 0.20 0.00 63 1012.7
20260510202659 72 279 2.0 7.0 0.00 0.20 0.00 59 1012.4
20260510201131 72 281 1.0 7.0 0.00 0.20 0.00 61 1012.4
20260510195645 72 280 0.0 11.0 0.00 0.22 0.00 59 1012.4
20260510194146 72 173 1.0 6.0 0.00 0.22 0.00 65 1012.6
20260510192659 72 148 0.0 1.0 0.00 0.22 0.00 71 1012.4
20260510191141 72 148 0.0 1.0 0.00 0.22 0.00 71 1012.6
20260510185652 71 147 0.0 7.0 0.00 0.32 0.00 71 1012.6
20260510184134 71 159 0.0 2.0 0.00 0.32 0.00 74 1012.8
20260510182644 70 159 0.0 1.0 0.00 0.32 0.00 72 1012.7
20260510181141 70 154 0.0 3.0 0.00 0.32 0.00 75 1012.8
20260510175626 69 155 0.0 0.0 0.00 0.33 0.00 75 1012.8
20260510174140 69 155 0.0 5.0 0.00 0.33 0.00 75 1012.7
20260510172631 68 157 0.0 3.0 0.00 0.33 0.00 78 1012.8
20260510171131 68 162 0.0 1.0 0.00 0.33 0.00 77 1013.0
20260510165646 67 162 0.0 7.0 0.00 0.33 0.00 79 1013.0
20260510162621 65 106 1.0 4.0 0.00 0.33 0.00 82 1013.3
20260510161136 64 233 2.0 4.0 0.00 0.33 0.00 83 1013.3
20260510155626 62 118 0.0 2.0 0.00 0.33 0.00 89 1013.2
20260510154123 61 103 0.0 3.0 0.00 0.33 0.00 92 1013.4
20260510152640 60 101 0.0 6.0 0.00 0.33 0.00 94 1013.5
20260510151122 60 306 0.0 4.0 0.00 0.33 0.00 96 1013.6
20260510145635 59 306 1.0 3.0 0.00 0.34 0.00 96 1013.8
20260510144130 58 306 0.0 1.0 0.00 0.34 0.00 96 1013.7
20260510142703 58 306 0.0 1.0 0.00 0.34 0.00 95 1013.7
20260510141136 57 306 0.0 1.0 0.00 0.34 0.00 96 1013.5
20260510135629 57 306 0.0 0.0 0.00 0.34 0.00 96 1013.3
20260510134134 57 306 0.0 2.0 0.00 0.34 0.00 96 1013.3
20260510132629 56 306 0.0 3.0 0.00 0.34 0.00 96 1013.4
20260510131144 56 306 1.0 3.0 0.00 0.34 0.00 95 1013.2
20260510125700 55 306 0.0 1.0 0.00 0.34 0.00 95 1013.1
20260510124137 55 306 0.0 1.0 0.00 0.34 0.00 95 1013.1
20260510122627 55 306 0.0 0.0 0.00 0.34 0.00 95 1012.8
20260510121125 55 306 0.0 0.0 0.00 0.34 0.00 95 1012.7
20260510115640 55 306 0.0 1.0 0.00 0.34 0.00 95 1012.5
20260510114136 54 306 0.0 0.0 0.00 0.34 0.00 95 1012.5
20260510112630 54 306 0.0 1.0 0.00 0.34 0.00 95 1012.1
20260510111132 54 306 0.0 2.0 0.00 0.34 0.00 95 1011.9
20260510105628 54 306 0.0 2.0 0.00 0.34 0.00 95 1011.9
20260510104146 54 306 1.0 3.0 0.00 0.34 0.00 94 1012.0
20260510102657 54 306 0.0 2.0 0.00 0.34 0.00 94 1011.8
20260510101134 54 306 0.0 3.0 0.00 0.34 0.00 94 1011.9
20260510095645 54 306 0.0 0.0 0.00 0.34 0.00 94 1012.0
20260510094142 54 306 0.0 2.0 0.00 0.34 0.00 94 1012.1
20260510092642 54 306 0.0 0.0 0.00 0.34 0.00 94 1012.3
20260510091145 54 306 0.0 0.0 0.00 0.34 0.00 94 1012.5
20260510085635 54 306 0.0 0.0 0.00 0.34 0.00 94 1012.5
20260510084130 54 306 0.0 0.0 0.00 0.34 0.00 94 1012.2
20260510082645 54 306 0.0 2.0 0.00 0.34 0.00 94 1012.3
20260510081143 54 306 1.0 3.0 0.00 0.34 0.00 94 1012.3
20260510075634 54 306 0.0 0.0 0.00 0.34 0.00 94 1011.6
20260510074148 54 306 0.0 0.0 0.00 0.34 0.00 94 1011.4
20260510072640 54 306 0.0 1.0 0.00 0.34 0.00 94 1011.5
20260510071139 54 306 0.0 2.0 0.00 0.34 0.00 94 1011.6
20260510065634 54 306 0.0 0.0 0.00 0.34 0.00 94 1011.8
20260510064132 53 306 1.0 3.0 0.00 0.34 0.00 95 1011.7
20260510062653 53 306 0.0 0.0 0.00 0.34 0.00 94 1011.4
20260510061147 53 306 0.0 0.0 0.00 0.34 0.00 94 1011.2
20260510055636 52 306 0.0 0.0 0.00 0.34 0.00 94 1011.3
20260510054156 52 306 0.0 0.0 0.00 0.34 0.00 93 1011.4
20260510052623 52 306 0.0 0.0 0.00 0.34 0.00 93 1011.4
20260510051124 51 306 0.0 0.0 0.00 0.34 0.00 93 1011.6
20260510045700 51 306 0.0 0.0 0.00 0.34 0.00 92 1011.7
20260510044141 51 306 0.0 0.0 0.00 0.34 0.00 92 1011.6
20260510042633 51 306 0.0 0.0 0.00 0.34 0.00 91 1011.6
20260510041131 51 306 0.0 0.0 0.00 0.34 0.00 91 1011.6
20260510035623 51 306 0.0 0.0 0.00 0.34 0.34 91 1011.6
20260510034122 52 306 0.0 0.0 0.00 0.34 0.34 91 1011.3
20260510032700 52 306 0.0 0.0 0.00 0.34 0.34 91 1011.2
20260510031136 52 306 0.0 0.0 0.00 0.34 0.34 90 1011.2
20260510025629 52 306 0.0 0.0 0.00 0.34 0.34 90 1011.1
20260510024131 53 306 0.0 0.0 0.00 0.34 0.34 90 1011.2
20260510022625 53 306 0.0 0.0 0.00 0.34 0.34 90 1011.4
20260510021146 54 306 0.0 0.0 0.00 0.34 0.34 90 1011.3
20260510015638 54 306 0.0 0.0 0.00 0.34 0.34 90 1011.3
20260510014137 54 306 0.0 0.0 0.00 0.34 0.34 90 1011.2
20260510012630 55 306 0.0 0.0 0.00 0.34 0.34 90 1011.1
20260510011147 55 306 0.0 0.0 0.00 0.34 0.34 90 1011.0
20260510005622 55 306 0.0 0.0 0.00 0.34 0.34 90 1010.8
20260510004144 56 306 0.0 1.0 0.00 0.34 0.34 90 1010.8
20260510002637 56 306 0.0 0.0 0.00 0.34 0.34 90 1010.7
20260510001134 57 306 0.0 0.0 0.00 0.34 0.34 90 1010.6
20260509235629 57 306 0.0 2.0 0.00 0.34 0.34 91 1010.5
20260509234127 58 306 0.0 2.0 0.00 0.34 0.34 91 1010.3
20260509232648 58 306 0.0 2.0 0.00 0.34 0.34 91 1010.4
20260509231144 58 306 0.0 1.0 0.00 0.34 0.34 91 1010.6